Location: Lyon
(45.7578°N, 4.8320°E)
Time: 12:15:48
(UTC+01:00)

Starlink L16 Placeholder - Visible Passes

Search period start: 23 January 2021 00:00
Search period end: 02 February 2021 00:00
Orbit: 258 x 284 km, 53.1° (Epoch: 18 January)

Date Brightness Start Highest point End Pass type
(mag) Time Alt. Az. Time Alt. Az. Time Alt. Az.
24 Jan 5.8 07:12:25 10° SSE 07:13:25 12° SE 07:14:25 10° ESE visible
25 Jan 5.1 07:10:17 10° S 07:12:13 20° SE 07:14:10 10° E visible
26 Jan 3.9 07:08:45 10° SSW 07:11:05 35° SE 07:13:25 10° ENE visible
27 Jan 2.6 07:07:31 10° SW 07:09:58 67° SSE 07:12:28 10° ENE visible
28 Jan 2.2 07:06:57 14° WSW 07:08:55 67° NNW 07:11:25 10° NE visible
29 Jan 6.2 05:36:30 10° E 05:36:30 10° E 05:36:32 10° E visible
29 Jan 2.8 07:06:28 19° W 07:07:55 40° NNW 07:10:18 10° NE visible
30 Jan 3.5 07:05:48 19° WNW 07:06:56 27° NNW 07:09:10 10° NE visible
31 Jan 3.9 07:04:59 17° NW 07:05:59 21° NNW 07:08:01 10° NE visible
01 Feb 4.2 07:04:05 15° NW 07:05:04 18° N 07:06:54 10° NE visible
